• In Hungary
  • List of Countries
  • For 7 days
  • Water Temperature
  • Satellite Maps
  • Weather Map
  • News
  • Weather Widgets
  • user-avatar
    Login

    Hourly Weather Chaplinka

    Today, 24 September, Monday

    Time Temperature Precipitation Wind Pressure Humidity
    00:00 +14°C° 0 mm 1 mps 763 mmHg 68%
    01:00 +13°C° 0 mm 1 mps 763 mmHg 69%
    02:00 +13°C° 0 mm 2 mps 762 mmHg 71%
    03:00 +13°C° 0 mm 2 mps 762 mmHg 73%
    04:00 +12°C° 0 mm 3 mps 762 mmHg 74%
    05:00 +12°C° 0 mm 3 mps 762 mmHg 76%
    06:00 +13°C° 0 mm 4 mps 761 mmHg 71%
    07:00 +15°C° 0 mm 5 mps 761 mmHg 67%
    08:00 +17°C° 0 mm 5 mps 760 mmHg 62%
    09:00 +19°C° 0 mm 5 mps 760 mmHg 58%
    10:00 +21°C° 0 mm 5 mps 759 mmHg 54%
    11:00 +22°C° 0 mm 5 mps 759 mmHg 49%
    12:00 +23°C° 0 mm 6 mps 758 mmHg 49%
    13:00 +26°C° 0 mm 7 mps 758 mmHg 49%
    14:00 +27°C° 0 mm 7 mps 757 mmHg 48%
    15:00 +26°C° 0 mm 7 mps 756 mmHg 53%
    16:00 +24°C° 0 mm 7 mps 756 mmHg 58%
    17:00 +24°C° 0 mm 7 mps 755 mmHg 63%
    18:00 +22°C° 0.3 mm 8 mps 756 mmHg 67%
    19:00 +20°C° 0.3 mm 8 mps 756 mmHg 72%
    20:00 +18°C° 0.3 mm 9 mps 757 mmHg 76%
    21:00 +16°C° 0.2 mm 9 mps 757 mmHg 75%
    22:00 +15°C° 0.2 mm 8 mps 758 mmHg 74%
    23:00 +13°C° 0.2 mm 8 mps 759 mmHg 73%

    Tomorrow, 25 September, Tuesday

    Time Temperature Precipitation Wind Pressure Humidity
    00:00 +12°C° 0.4 mm 8 mps 759 mmHg 74%
    01:00 +11°C° 0.4 mm 7 mps 760 mmHg 76%
    02:00 +10°C° 0.4 mm 7 mps 760 mmHg 78%
    03:00 +10°C° 0.1 mm 7 mps 760 mmHg 76%
    04:00 +10°C° 0.1 mm 6 mps 760 mmHg 73%
    05:00 +10°C° 0.1 mm 6 mps 761 mmHg 71%
    06:00 +10°C° 0 mm 6 mps 761 mmHg 68%
    07:00 +11°C° 0 mm 7 mps 762 mmHg 65%
    08:00 +11°C° 0 mm 7 mps 762 mmHg 62%
    09:00 +12°C° 0 mm 7 mps 762 mmHg 58%
    10:00 +14°C° 0 mm 7 mps 763 mmHg 53%
    11:00 +15°C° 0 mm 7 mps 763 mmHg 48%
    12:00 +15°C° 0 mm 7 mps 763 mmHg 46%
    13:00 +16°C° 0 mm 7 mps 763 mmHg 45%
    14:00 +16°C° 0 mm 8 mps 763 mmHg 43%
    15:00 +15°C° 0 mm 8 mps 764 mmHg 45%
    16:00 +14°C° 0 mm 7 mps 764 mmHg 46%
    17:00 +14°C° 0 mm 7 mps 764 mmHg 48%
    18:00 +12°C° 0 mm 7 mps 765 mmHg 52%
    19:00 +11°C° 0 mm 7 mps 766 mmHg 57%
    20:00 +10°C° 0 mm 7 mps 766 mmHg 61%
    21:00 +9°C° 0 mm 7 mps 767 mmHg 63%
    22:00 +9°C° 0 mm 6 mps 767 mmHg 66%
    23:00 +8°C° 0 mm 6 mps 767 mmHg 68%

    Day after tomorrow, 26 September, Wednesday

    Time Temperature Precipitation Wind Pressure Humidity
    00:00 +8°C° 0 mm 6 mps 768 mmHg 69%
    01:00 +8°C° 0 mm 5 mps 768 mmHg 70%
    02:00 +7°C° 0 mm 5 mps 768 mmHg 70%
    03:00 +7°C° 0 mm 5 mps 769 mmHg 72%
    04:00 +7°C° 0 mm 5 mps 769 mmHg 73%
    05:00 +6°C° 0 mm 5 mps 769 mmHg 74%
    06:00 +7°C° 0 mm 5 mps 770 mmHg 70%
    07:00 +8°C° 0 mm 5 mps 770 mmHg 65%
    08:00 +9°C° 0 mm 5 mps 770 mmHg 61%
    09:00 +10°C° 0 mm 5 mps 771 mmHg 54%
    10:00 +12°C° 0 mm 5 mps 771 mmHg 48%
    11:00 +14°C° 0 mm 5 mps 771 mmHg 41%
    12:00 +14°C° 0 mm 5 mps 771 mmHg 39%
    13:00 +14°C° 0 mm 5 mps 771 mmHg 37%
    14:00 +15°C° 0 mm 5 mps 771 mmHg 35%
    15:00 +14°C° 0 mm 5 mps 771 mmHg 36%
    16:00 +13°C° 0 mm 5 mps 771 mmHg 36%
    17:00 +13°C° 0 mm 5 mps 771 mmHg 37%
    18:00 +12°C° 0 mm 5 mps 771 mmHg 38%
    19:00 +12°C° 0 mm 4 mps 772 mmHg 38%
    20:00 +12°C° 0 mm 4 mps 772 mmHg 39%
    21:00 +11°C° 0 mm 4 mps 772 mmHg 42%
    22:00 +10°C° 0 mm 4 mps 772 mmHg 45%
    23:00 +8°C° 0 mm 4 mps 772 mmHg 48%

    27 September, Thursday

    Time Temperature Precipitation Wind Pressure Humidity
    00:00 +8°C° 0 mm 4 mps 772 mmHg 50%
    01:00 +7°C° 0 mm 4 mps 772 mmHg 53%
    02:00 +7°C° 0 mm 4 mps 772 mmHg 56%
    03:00 +6°C° 0 mm 4 mps 772 mmHg 57%
    04:00 +7°C° 0 mm 3 mps 772 mmHg 57%
    05:00 +5°C° 0 mm 3 mps 772 mmHg 58%
    06:00 +8°C° 0 mm 2 mps 772 mmHg 54%
    07:00 +9°C° 0 mm 2 mps 772 mmHg 50%
    08:00 +10°C° 0 mm 2 mps 772 mmHg 46%
    09:00 +12°C° 0 mm 2 mps 772 mmHg 41%
    10:00 +13°C° 0 mm 2 mps 771 mmHg 36%
    11:00 +15°C° 0 mm 2 mps 771 mmHg 31%
    12:00 +14°C° 0 mm 3 mps 771 mmHg 30%
    13:00 +16°C° 0 mm 3 mps 770 mmHg 29%
    14:00 +17°C° 0 mm 3 mps 769 mmHg 28%
    15:00 +16°C° 0 mm 3 mps 769 mmHg 31%
    16:00 +16°C° 0 mm 3 mps 769 mmHg 33%
    17:00 +14°C° 0 mm 3 mps 768 mmHg 36%
    18:00 +14°C° 0 mm 3 mps 768 mmHg 41%
    19:00 +13°C° 0 mm 3 mps 768 mmHg 45%
    20:00 +12°C° 0 mm 3 mps 768 mmHg 50%
    21:00 +12°C° 0 mm 3 mps 768 mmHg 52%
    22:00 +11°C° 0 mm 3 mps 768 mmHg 54%
    23:00 +11°C° 0 mm 3 mps 768 mmHg 56%

    28 September, Friday

    Time Temperature Precipitation Wind Pressure Humidity
    00:00 +11°C° 0 mm 3 mps 767 mmHg 57%
    01:00 +11°C° 0 mm 3 mps 767 mmHg 58%
    02:00 +11°C° 0 mm 3 mps 767 mmHg 60%
    03:00 +11°C° 0 mm 3 mps 766 mmHg 61%
    04:00 +11°C° 0 mm 3 mps 766 mmHg 62%
    05:00 +11°C° 0 mm 3 mps 766 mmHg 63%
    06:00 +13°C° 0 mm 3 mps 766 mmHg 58%
    07:00 +14°C° 0 mm 3 mps 765 mmHg 53%
    08:00 +16°C° 0 mm 3 mps 765 mmHg 47%
    09:00 +18°C° 0 mm 3 mps 765 mmHg 46%
    10:00 +20°C° 0 mm 2 mps 765 mmHg 44%
    11:00 +21°C° 0 mm 2 mps 765 mmHg 42%
    12:00 +23°C° 0 mm 2 mps 764 mmHg 42%
    13:00 +22°C° 0 mm 3 mps 764 mmHg 41%
    14:00 +24°C° 0 mm 3 mps 763 mmHg 41%
    15:00 +22°C° 0 mm 3 mps 763 mmHg 44%
    16:00 +22°C° 0 mm 3 mps 763 mmHg 47%
    17:00 +21°C° 0 mm 3 mps 762 mmHg 50%
    18:00 +20°C° 0 mm 2 mps 762 mmHg 55%
    19:00 +18°C° 0 mm 2 mps 762 mmHg 60%
    20:00 +17°C° 0 mm 2 mps 762 mmHg 66%
    21:00 +17°C° 0 mm 2 mps 762 mmHg 68%
    22:00 +16°C° 0 mm 2 mps 762 mmHg 70%
    23:00 +16°C° 0 mm 2 mps 762 mmHg 72%

    29 September, Saturday

    Time Temperature Precipitation Wind Pressure Humidity
    00:00 +16°C° 0 mm 2 mps 762 mmHg 73%
    01:00 +15°C° 0 mm 2 mps 762 mmHg 74%
    02:00 +15°C° 0 mm 1 mps 761 mmHg 75%
    03:00 +15°C° 0 mm 1 mps 761 mmHg 75%
    04:00 +15°C° 0 mm 1 mps 761 mmHg 76%
    05:00 +14°C° 0 mm 1 mps 761 mmHg 77%
    06:00 +16°C° 0 mm 1 mps 761 mmHg 72%
    07:00 +18°C° 0 mm 1 mps 761 mmHg 66%
    08:00 +19°C° 0 mm 1 mps 761 mmHg 61%
    09:00 +20°C° 0 mm 1 mps 760 mmHg 56%
    10:00 +22°C° 0 mm 1 mps 760 mmHg 51%
    11:00 +23°C° 0 mm 1 mps 760 mmHg 47%
    12:00 +24°C° 0 mm 1 mps 760 mmHg 45%
    13:00 +24°C° 0 mm 1 mps 760 mmHg 42%
    14:00 +23°C° 0 mm 0 mps 759 mmHg 40%
    15:00 +24°C° 0 mm 1 mps 759 mmHg 43%
    16:00 +24°C° 0 mm 1 mps 759 mmHg 45%
    17:00 +23°C° 0 mm 1 mps 759 mmHg 47%
    18:00 +21°C° 0 mm 2 mps 759 mmHg 51%
    19:00 +20°C° 0 mm 2 mps 759 mmHg 54%
    20:00 +18°C° 0 mm 2 mps 760 mmHg 58%
    21:00 +18°C° 0 mm 2 mps 760 mmHg 60%
    22:00 +18°C° 0 mm 3 mps 760 mmHg 62%
    23:00 +17°C° 0 mm 3 mps 760 mmHg 65%
    Show more